Miscellaneous Local Product
Issued by NWS Hastings, NE

Home | Current Version | Previous Version | Text Only | Print | Product List | Glossary Off
Versions: 1 2 3 4 5 6 7 8 9 10 11 12 13 14 15 16 17 18 19 20 21 22 23 24 25 26 27 28 29 30 31 32 33 34 35 36 37 38 39 40 41 42 43 44 45 46 47 48 49 50

297
AXUS43 KGID 231502
MISGRI

GID CWA HOURLY WEATHER ROUNDUP
NATIONAL WEATHER SERVICE HASTINGS NE
900 AM CST MON JAN 23 2017

NOTE: "FAIR" INDICATES FEW OR NO CLOUDS BELOW 12,000 FEET WITH NO
SIGNIFICANT WEATHER AND/OR OBSTRUCTIONS TO VISIBILITY.

...SOUTH CENTRAL NEBRASKA...

CITY           SKY/WX    TMP DP  RH WIND       PRES   REMARKS
GRAND ISLAND   FOG       26  26 100 SE6       29.86S VSB 1/2 WCI  19
HASTINGS       CLOUDY    29  27  92 E6        29.85F WCI  23
KEARNEY        PTSUNNY   28  25  86 CALM      29.83R
ORD            CLOUDY    25  23  92 SE6       29.81F WCI  18
YORK           FOG       28  28 100 SE3       29.88R VSB 1/4
AURORA         FOG       27  27 100 E5        29.86S VSB<1/4 WCI  22
LEXINGTON      CLOUDY    31  28  88 SE7       29.78F WCI  24
HOLDREGE       PTCLDY    30  28  90 SE10      29.79F WCI  21
HEBRON         FOG       27  27 100 NE5       29.88S VSB 1/4 WCI  21

...NEBRASKA PANHANDLE...

CITY           SKY/WX    TMP DP  RH WIND       PRES   REMARKS
CHADRON        CLOUDY    30  24  78 S5        29.65F WCI  25
ALLIANCE       CLOUDY    29  24  82 E3        29.63F
SCOTTSBLUFF    CLOUDY    27  21  78 E5        29.63F WCI  22
SIDNEY         CLOUDY    28  22  78 SE3       29.63F

...WESTERN AND NORTH CENTRAL NEBRASKA...

CITY           SKY/WX    TMP DP  RH WIND       PRES   REMARKS
VALENTINE      CLOUDY    21  18  88 NE6       29.75F WCI  13
AINSWORTH      CLOUDY    25  25  98 SE6       29.78S WCI  18
ONEILL         FOG       27  27  98 S6        29.84R VSB 1/2 WCI  21
BROKEN BOW     CLOUDY    30  27  88 SE8       29.78S WCI  22
IMPERIAL       CLOUDY    30  24  78 SE12      29.67F WCI  20
NORTH PLATTE   CLOUDY    30  26  85 E9        29.75S WCI  22
MCCOOK         CLEAR     26  24  92 E5        29.76F WCI  20

...EASTERN NEBRASKA...

CITY           SKY/WX    TMP DP  RH WIND       PRES   REMARKS
NORFOLK        CLOUDY    29  24  82 CALM      29.86F
SO SIOUX CITY  CLOUDY    33  29  85 W5        29.90R WCI  29
TEKAMAH        CLOUDY    32  28  85 NW3       29.90S
COLUMBUS       CLOUDY    30  25  80 W3        29.89R
ALBION         CLOUDY    27  25  90 S3        29.86S FOG
OMAHA EPPLEY   CLOUDY    33  27  78 NW5       29.90S WCI  29
OFFUTT AFB     CLOUDY    32  32  99 NW5       29.89F WCI  28
MILLARD        CLOUDY    34  29  83 NW5       29.90S WCI  30
LINCOLN        CLOUDY    31  28  89 NE5       29.91R WCI  26
NEBRASKA CITY  CLOUDY    31  28  89 N5        29.89S WCI  26
BEATRICE       FOG       28  28  99 CALM      29.91R VSB 1/4
FALLS CITY     CLOUDY    31  28  89 N7        29.90S WCI  24

...NORTHERN KANSAS...

CITY           SKY/WX    TMP DP  RH WIND       PRES   REMARKS
GOODLAND       CLEAR     31  26  82 S17       29.67F WCI  19
HILL CITY      SUNNY     29  27  92 CALM      29.81F
NORTON         SUNNY     28  23  80 CALM      29.78F
PHILLIPSBURG   SUNNY     28  28 100 NE5       29.83S WCI  23
SMITH CENTER   SUNNY     28  28 100 E8        29.84S WCI  20
HAYS           MOSUNNY   35  28  75 CALM      29.84
RUSSELL        SUNNY     31  27  85 S6        29.83S WCI  25
CONCORDIA      SUNNY     29  28  96 CALM      29.87R
SALINA         SUNNY     30  27  88 CALM      29.89R
TOPEKA         FOG       30  27  88 N8        29.91S VSB 1/2 WCI  22



USA.gov is the U.S. government's official web portal to all federal, state and local government web resources and services.